Weather History for Gainesville, GA

Change the Weather History Date:

Tuesday, November 1, 2011

  Actual Average Record
Temperature  
Mean Temperature 50 °F 57 °F  
Max Temperature 64 °F 67 °F 82 °F (1935)
Min Temperature 37 °F 47 °F 26 °F (1939)
Degree Days  
Heating Degree Days 14 8  
Month to date heating degree days 8  
Since 1 July heating degree days 166  
Cooling Degree Days 0 1  
Month to date cooling degree days 1  
Year to date cooling degree days 1583  
Moisture  
Dew Point 35 °F    
Average Humidity 59    
Maximum Humidity 93    
Minimum Humidity 27    
Precipitation  
Precipitation 0.00 in 0.10 in 2.68 in (1932)
Month to date precipitation 0.10  
Snow  
Snow 0.00 in - - ()
Month to date snowfall  
Since 1 July snowfall  
Since 1 September snowfall  
Snow Depth -    
Sea Level Pressure  
Sea Level Pressure 30.29 in    
Wind  
Wind Speed 1 mph (ESE)    
Max Wind Speed 6 mph    
Max Gust Speed -    
Visibility 10 miles    
Events      
T = Trace of Precipitation, MM = Missing Value Source: NWS Daily Summary

Daily Weather History Graph

Daily Weather History Graph

Search for Another Location

Airport:

Trip Planner

Search our weather history database for the weather conditions in past years. The results will help you decide how hot, cold, wet, or windy it might be!

Date:

Astronomy

Nov. 01, 2011 Rise Set
Actual Time 7:54 AM EDT 6:42 PM EDT
Civil Twilight 7:29 AM EDT 7:08 PM EDT
Nautical Twilight 6:59 AM EDT 7:37 PM EDT
Astronomical Twilight 6:30 AM EDT 8:07 PM EDT
Moon 1:38 PM EDT (11/1) No Moon Set
Length of Visible Light 11h 39m
Length of Day
10h 47m
Waxing Crescent, 39% of the Moon is Illuminated
Nov 1
Waxing Crescent
Nov 2
First Quarter
Nov 10
Full
Nov 18
Last Quarter
Nov 25
New

Hourly Weather History & Observations

Time (EDT) Temp. Dew Point Humidity Pressure Visibility Wind Dir Wind Speed Gust Speed Precip Events Conditions
12:53 AM 43.0 °F 37.9 °F 82% 30.23 in 10.0 mi Calm Calm - N/A   Clear
1:53 AM 43.0 °F 37.9 °F 82% 30.24 in 10.0 mi Calm Calm - N/A   Clear
2:53 AM 41.0 °F 37.0 °F 86% 30.25 in 10.0 mi Calm Calm - N/A   Clear
3:53 AM 42.1 °F 37.9 °F 85% 30.25 in 10.0 mi Calm Calm - N/A   Clear
4:53 AM 39.9 °F 37.9 °F 93% 30.26 in 10.0 mi Calm Calm - N/A   Clear
5:53 AM 39.0 °F 37.0 °F 93% 30.27 in 10.0 mi Calm Calm - N/A   Clear
6:53 AM 37.9 °F 36.0 °F 93% 30.28 in 10.0 mi Calm Calm - N/A   Clear
7:53 AM 37.0 °F 35.1 °F 93% 30.29 in 9.0 mi Calm Calm - N/A   Clear
8:53 AM 41.0 °F 37.0 °F 86% 30.31 in 10.0 mi Calm Calm - N/A   Clear
9:53 AM 48.0 °F 39.0 °F 71% 30.32 in 10.0 mi Calm Calm - N/A   Clear
10:53 AM 55.0 °F 37.9 °F 53% 30.34 in 10.0 mi Calm Calm - N/A   Clear
11:53 AM 60.1 °F 34.0 °F 38% 30.33 in 10.0 mi Variable 3.5 mph - N/A   Clear
12:53 PM 62.1 °F 28.9 °F 29% 30.32 in 10.0 mi NNE 4.6 mph - N/A   Clear
1:53 PM 63.0 °F 30.9 °F 30% 30.29 in 10.0 mi ESE 3.5 mph - N/A   Clear
2:53 PM 64.0 °F 30.0 °F 28% 30.27 in 10.0 mi ENE 4.6 mph - N/A   Clear
3:53 PM 64.9 °F 30.0 °F 27% 30.26 in 10.0 mi ESE 5.8 mph - N/A   Clear
4:53 PM 64.0 °F 30.0 °F 28% 30.27 in 10.0 mi Variable 3.5 mph - N/A   Clear
5:53 PM 63.0 °F 30.0 °F 29% 30.27 in 10.0 mi East 4.6 mph - N/A   Clear
6:53 PM 57.9 °F 33.1 °F 39% 30.29 in 10.0 mi SE 3.5 mph - N/A   Clear
7:53 PM 55.9 °F 33.1 °F 42% 30.30 in 10.0 mi ESE 3.5 mph - N/A   Clear
8:53 PM 53.1 °F 34.0 °F 48% 30.32 in 10.0 mi SE 3.5 mph - N/A   Clear
9:53 PM 51.1 °F 34.0 °F 52% 30.32 in 10.0 mi Calm Calm - N/A   Clear
10:53 PM 52.0 °F 35.1 °F 53% 30.32 in 10.0 mi Calm Calm - N/A   Clear
11:53 PM 48.0 °F 36.0 °F 63% 30.32 in 10.0 mi Calm Calm - N/A   Clear